User: anonymous   Login
Location: Unspecified
(0.0000°N, 0.0000°E)
Time: 19:47:01
(UTC+00:00)
Language:

APRIZESAT 9 - Orbit

View from above orbital plane
View from above orbital plane
View from above satellite
View from above satellite

Ground track
Ground track

The orbit data is extracted from the following two-line orbital elements,

1 40018U 14033J   17269.52216108  .00000086  00000-0  22017-4 0  9994
2 40018  97.8275 142.8533 0071297 347.4793  12.4640 14.69824476175362
Epoch (UTC): 26 September 2017 12:31:54
Eccentricity: 0.0071297
inclination: 97.8275°
perigee height: 611 km
apogee height: 712 km
right ascension of ascending node: 142.8533°
argument of perigee: 347.4793°
revolutions per day: 14.69824476
mean anomaly at epoch: 12.4640°
orbit number at epoch: 17536

The dashed part of the orbit path shows where the satellite is in the earth's shadow,  

DLR